Weather History for KMWH - December, 2014

Change the Weather History Date:

Sunday, December 28, 2014

  Actual Average Record
Temperature  
Mean Temperature 34 °F 28 °F  
Max Temperature 40 °F 34 °F 64 °F (1998)
Min Temperature 27 °F 22 °F -11 °F (1996)
Degree Days  
Heating Degree Days 31 37  
Month to date heating degree days 800 1012  
Since 1 July heating degree days 2002 2473  
Cooling Degree Days 0 0  
Month to date cooling degree days 0 0  
Year to date cooling degree days 952 615  
Moisture  
Dew Point 28 °F    
Average Humidity 78    
Maximum Humidity 92    
Minimum Humidity 64    
Precipitation  
Precipitation 0.00 in 0.06 in 0.18 in (2002)
Month to date precipitation 0.84 1.28  
Year to date precipitation 6.84 8.95  
Sea Level Pressure  
Sea Level Pressure 30.13 in    
Wind  
Wind Speed 4 mph (WNW)    
Max Wind Speed 10 mph    
Max Gust Speed 12 mph    
Visibility 10 miles    
Events      
T = Trace of Precipitation, MM = Missing Value Source: NWS Daily Summary

Daily Weather History Graph

Daily Weather History Graph

Search for Another Location

Airport or City:

Trip Planner

Search our weather history database for the weather conditions in past years. The results will help you decide how hot, cold, wet, or windy it might be!

Date:

Astronomy

Dec. 28, 2014 Rise Set
Actual Time 7:43 AM PST 4:14 PM PST
Civil Twilight 7:07 AM PST 4:50 PM PST
Nautical Twilight 6:29 AM PST 5:29 PM PST
Astronomical Twilight 5:51 AM PST 6:06 PM PST
Moon 11:40 AM PST (12/28) No Moon Set
Length of Visible Light 9h 42m
Length of Day
8h 30m
Waxing Crescent, 51% of the Moon is Illuminated
Dec 28
Waxing Crescent
Jan 4
Full
Jan 13
Last Quarter
Jan 20
New
Jan 26
First Quarter

Hourly Weather History & Observations

Time (PST) Temp. Windchill Dew Point Humidity Pressure Visibility Wind Dir Wind Speed Gust Speed Precip Events Conditions
12:52 AM 34.0 °F 27.2 °F 30.0 °F 85% 29.98 in 10.0 mi SW 8.1 mph - N/A   Mostly Cloudy
1:52 AM 32.0 °F 28.7 °F 28.9 °F 88% 30.01 in 10.0 mi West 3.5 mph - N/A   Mostly Cloudy
2:52 AM 30.9 °F 23.5 °F 28.0 °F 89% 30.03 in 10.0 mi North 8.1 mph - N/A   Clear
3:52 AM 28.0 °F 22.8 °F 26.1 °F 92% 30.04 in 10.0 mi North 4.6 mph - N/A   Clear
4:52 AM 28.0 °F 20.8 °F 25.0 °F 88% 30.05 in 10.0 mi North 6.9 mph - N/A   Clear
5:52 AM 28.0 °F 20.0 °F 25.0 °F 88% 30.08 in 10.0 mi North 8.1 mph - N/A   Scattered Clouds
6:52 AM 28.0 °F 20.8 °F 25.0 °F 88% 30.10 in 10.0 mi North 6.9 mph - N/A   Overcast
7:52 AM 28.0 °F - 25.0 °F 88% 30.13 in 10.0 mi Calm Calm - N/A   Overcast
8:52 AM 30.9 °F - 27.0 °F 85% 30.15 in 10.0 mi Calm Calm - N/A   Mostly Cloudy
9:52 AM 33.1 °F - 28.0 °F 82% 30.17 in 10.0 mi Calm Calm - N/A   Overcast
10:52 AM 34.0 °F 28.8 °F 28.9 °F 82% 30.17 in 10.0 mi West 5.8 mph - N/A   Overcast
11:52 AM 37.9 °F 32.7 °F 30.0 °F 73% 30.16 in 10.0 mi WSW 6.9 mph - N/A   Mostly Cloudy
12:52 PM 39.0 °F 34.0 °F 28.9 °F 67% 30.15 in 10.0 mi WSW 6.9 mph - N/A   Mostly Cloudy
1:52 PM 39.0 °F 33.4 °F 30.0 °F 70% 30.14 in 10.0 mi SW 8.1 mph - N/A   Overcast
2:52 PM 39.0 °F 34.8 °F 30.0 °F 70% 30.15 in 10.0 mi WSW 5.8 mph - N/A   Overcast
3:52 PM 37.9 °F 35.5 °F 30.0 °F 73% 30.16 in 10.0 mi SW 3.5 mph - N/A   Overcast
4:52 PM 36.0 °F - 28.9 °F 76% 30.17 in 10.0 mi Calm Calm - N/A   Overcast
5:52 PM 36.0 °F 31.1 °F 28.9 °F 76% 30.17 in 10.0 mi WSW 5.8 mph - N/A   Overcast
6:52 PM 34.0 °F - 30.0 °F 85% 30.17 in 10.0 mi Calm Calm - N/A   Mostly Cloudy
7:52 PM 35.1 °F - 30.0 °F 82% 30.17 in 10.0 mi Calm Calm - N/A   Overcast
8:52 PM 33.1 °F 28.7 °F 28.9 °F 85% 30.18 in 10.0 mi ESE 4.6 mph - N/A   Overcast
9:52 PM 32.0 °F - 28.9 °F 88% 30.19 in 10.0 mi Calm Calm - N/A   Overcast
10:52 PM 30.9 °F 24.3 °F 28.9 °F 92% 30.19 in 10.0 mi North 6.9 mph - N/A   Overcast
11:52 PM 30.9 °F 25.2 °F 28.0 °F 89% 30.19 in 10.0 mi NE 5.8 mph - N/A   Overcast